Change the Weather History Date:

Monday, October 7, 2013

  Actual Average (KWAL) Record (KWAL)
Temperature  
Mean Temperature 76 °F 62 °F  
Max Temperature 86 °F 71 °F 88 °F (2007)
Min Temperature 66 °F 53 °F 40 °F (2001)
Degree Days  
Heating Degree Days 0    
Month to date heating degree days  
Since 1 July heating degree days  
Cooling Degree Days 11    
Month to date cooling degree days  
Year to date cooling degree days  
Growing Degree Days 26 (Base 50)    
Moisture  
Dew Point 66 °F    
Average Humidity 72    
Maximum Humidity 88    
Minimum Humidity 51    
Precipitation  
Precipitation 0.91 in 0.11 in 0.72 in (2013)
Month to date precipitation 0.73  
Year to date precipitation 32.10  
Sea Level Pressure  
Sea Level Pressure 29.93 in    
Wind  
Wind Speed 9 mph (South)    
Max Wind Speed 20 mph    
Max Gust Speed 29 mph    
Visibility 9 miles    
Events Rain , Thunderstorm    
T = Trace of Precipitation, MM = Missing Value Source: NWS Daily Summary

Daily Weather History Graph

Daily Weather History Graph

Search for Another Location

Airport or City:

Trip Planner

Search our weather history database for the weather conditions in past years. The results will help you decide how hot, cold, wet, or windy it might be!

Date:

Astronomy

Oct. 07, 2013 Rise Set
Actual Time 7:04 AM EDT 6:36 PM EDT
Civil Twilight 6:37 AM EDT 7:03 PM EDT
Nautical Twilight 6:07 AM EDT 7:33 PM EDT
Astronomical Twilight 5:37 AM EDT 8:03 PM EDT
Moon 9:48 AM EDT (10/7) 8:23 PM EDT (10/7)
Length of Visible Light 12h 25m
Length of Day
11h 32m
Waxing Crescent, 8% of the Moon is Illuminated
Oct 7
Waxing Crescent
Oct 11
First Quarter
Oct 18
Full
Oct 26
Last Quarter
Nov 3
New

Hourly Weather History & Observations

Time (EDT) Temp. Heat Index Dew Point Humidity Pressure Visibility Wind Dir Wind Speed Gust Speed Precip Events Conditions
12:16 AM 75.2 °F - 66.2 °F 73% 30.00 in 10.0 mi SSE 8.1 mph - N/A   Clear
12:39 AM 75.2 °F - 66.2 °F 73% 29.99 in 10.0 mi SSE 8.1 mph - N/A   Clear
12:56 AM 75.2 °F - 66.2 °F 73% 29.99 in 10.0 mi SSE 6.9 mph - N/A   Clear
1:19 AM 75.2 °F - 66.2 °F 73% 29.99 in 10.0 mi SSE 5.8 mph - N/A   Clear
1:36 AM 75.2 °F - 66.2 °F 73% 29.98 in 10.0 mi SSE 8.1 mph - N/A   Scattered Clouds
1:56 AM 75.2 °F - 66.2 °F 73% 29.98 in 10.0 mi SSE 9.2 mph - N/A   Scattered Clouds
2:16 AM 75.2 °F - 66.2 °F 73% 29.97 in 10.0 mi South 8.1 mph - N/A   Scattered Clouds
2:36 AM 75.2 °F - 66.2 °F 73% 29.97 in 10.0 mi SSE 4.6 mph - N/A   Scattered Clouds
2:58 AM 75.2 °F - 66.2 °F 73% 29.97 in 10.0 mi South 5.8 mph - N/A   Clear
3:16 AM 75.2 °F - 66.2 °F 73% 29.97 in 10.0 mi South 6.9 mph - N/A   Scattered Clouds
3:36 AM 75.2 °F - 66.2 °F 73% 29.96 in 10.0 mi SSE 8.1 mph - N/A   Scattered Clouds
3:57 AM 75.2 °F - 66.2 °F 73% 29.95 in 10.0 mi SSE 6.9 mph - N/A   Scattered Clouds
4:18 AM 75.2 °F - 66.2 °F 73% 29.95 in 10.0 mi SSE 9.2 mph - N/A   Overcast
4:36 AM 75.2 °F - 66.2 °F 73% 29.94 in 10.0 mi South 8.1 mph - N/A   Overcast
4:56 AM 75.2 °F - 66.2 °F 73% 29.94 in 10.0 mi SSE 9.2 mph - N/A   Mostly Cloudy
5:16 AM 75.2 °F - 66.2 °F 73% 29.94 in 10.0 mi SSE 6.9 mph - N/A   Overcast
5:38 AM 75.2 °F - 66.2 °F 73% 29.93 in 10.0 mi SSE 9.2 mph - N/A   Mostly Cloudy
5:56 AM 77.0 °F - 66.2 °F 69% 29.93 in 10.0 mi South 9.2 mph - N/A   Mostly Cloudy
6:16 AM 75.2 °F - 68.0 °F 78% 29.93 in 7.0 mi SSE 10.4 mph 17.3 mph N/A   Mostly Cloudy
6:56 AM 75.2 °F - 69.8 °F 83% 29.93 in 10.0 mi South 8.1 mph - N/A   Mostly Cloudy
7:16 AM 75.2 °F - 69.8 °F 83% 29.92 in 7.0 mi South 6.9 mph 16.1 mph N/A   Overcast
7:36 AM 75.2 °F - 69.8 °F 83% 29.92 in 5.0 mi South 10.4 mph - 0.01 in Rain Light Rain
7:56 AM 75.2 °F - 69.8 °F 83% 29.92 in 10.0 mi South 6.9 mph - N/A   Scattered Clouds
8:16 AM 77.0 °F - 69.8 °F 78% 29.92 in 10.0 mi South 11.5 mph 18.4 mph N/A   Mostly Cloudy
8:36 AM 78.8 °F - 69.8 °F 74% 29.92 in 10.0 mi South 9.2 mph 20.7 mph N/A   Scattered Clouds
8:56 AM 78.8 °F - 69.8 °F 74% 29.92 in 10.0 mi South 11.5 mph 20.7 mph N/A   Scattered Clouds
9:16 AM 78.8 °F - 69.8 °F 74% 29.92 in 10.0 mi South 10.4 mph 19.6 mph N/A   Scattered Clouds
9:36 AM 78.8 °F - 69.8 °F 74% 29.92 in 10.0 mi South 11.5 mph 23.0 mph N/A   Scattered Clouds
9:56 AM 78.8 °F - 69.8 °F 74% 29.92 in 10.0 mi South 11.5 mph 20.7 mph N/A   Scattered Clouds
10:16 AM 78.8 °F - 68.0 °F 69% 29.93 in 10.0 mi South 12.7 mph 23.0 mph N/A   Mostly Cloudy
10:36 AM 78.8 °F - 68.0 °F 69% 29.92 in 10.0 mi South 15.0 mph 21.9 mph N/A   Scattered Clouds
10:56 AM 82.4 °F 85.4 °F 68.0 °F 62% 29.91 in 10.0 mi South 16.1 mph 26.5 mph N/A   Scattered Clouds
11:16 AM 82.4 °F 85.4 °F 68.0 °F 62% 29.91 in 10.0 mi South 15.0 mph 24.2 mph N/A   Mostly Cloudy
11:36 AM 82.4 °F 84.6 °F 66.2 °F 58% 29.91 in 10.0 mi South 17.3 mph 27.6 mph N/A   Scattered Clouds
11:56 AM 82.4 °F 84.6 °F 66.2 °F 58% 29.90 in 10.0 mi South 17.3 mph 28.8 mph N/A   Scattered Clouds
12:16 PM 84.2 °F 87.3 °F 68.0 °F 58% 29.90 in 10.0 mi South 16.1 mph 25.3 mph N/A   Clear
12:36 PM 84.2 °F 86.6 °F 66.2 °F 55% 29.89 in 10.0 mi South 16.1 mph 24.2 mph N/A   Clear
12:56 PM 84.2 °F 86.6 °F 66.2 °F 55% 29.89 in 10.0 mi South 18.4 mph 28.8 mph N/A   Clear
1:16 PM 84.2 °F 86.6 °F 66.2 °F 55% 29.88 in 10.0 mi South 13.8 mph 25.3 mph N/A   Clear
1:36 PM 86.0 °F 88.2 °F 66.2 °F 51% 29.87 in 10.0 mi South 13.8 mph 21.9 mph N/A   Clear
1:55 PM 84.2 °F 86.6 °F 66.2 °F 55% 29.87 in 10.0 mi South 9.2 mph 19.6 mph N/A   Clear
2:15 PM 84.2 °F 86.6 °F 66.2 °F 55% 29.87 in 10.0 mi South 19.6 mph 26.5 mph N/A   Clear
2:35 PM 82.4 °F 84.6 °F 66.2 °F 58% 29.86 in 10.0 mi South 13.8 mph 23.0 mph N/A   Scattered Clouds
2:55 PM 84.2 °F 86.6 °F 66.2 °F 55% 29.86 in 10.0 mi South 17.3 mph 23.0 mph N/A   Clear
3:15 PM 82.4 °F 84.6 °F 66.2 °F 58% 29.86 in 10.0 mi South 13.8 mph 21.9 mph N/A   Clear
3:35 PM 82.4 °F 84.6 °F 66.2 °F 58% 29.87 in 10.0 mi South 10.4 mph 19.6 mph N/A   Clear
3:55 PM 80.6 °F 82.7 °F 66.2 °F 61% 29.87 in 10.0 mi South 11.5 mph 17.3 mph N/A   Scattered Clouds
4:16 PM 80.6 °F 83.2 °F 68.0 °F 65% 29.88 in 10.0 mi SSW 10.4 mph 16.1 mph N/A   Scattered Clouds
4:35 PM 75.2 °F - 64.4 °F 69% 29.90 in 7.0 mi West 13.8 mph 27.6 mph 0.01 in Rain Light Rain
4:55 PM 73.4 °F - 66.2 °F 78% 29.91 in 5.0 mi West 9.2 mph 17.3 mph 0.27 in Rain , Thunderstorm Heavy Thunderstorms and Rain
5:15 PM 73.4 °F - 66.2 °F 78% 29.91 in 5.0 mi WNW 8.1 mph - 0.19 in Rain Heavy Rain
5:35 PM 73.4 °F - 66.2 °F 78% 29.91 in 10.0 mi West 4.6 mph - 0.38 in Rain Rain
5:55 PM 73.4 °F - 66.2 °F 78% 29.90 in 10.0 mi SSE 5.8 mph - 0.43 in Rain Rain
6:15 PM 73.4 °F - 66.2 °F 78% 29.91 in 10.0 mi Calm Calm - 0.05 in Rain Rain
6:37 PM 71.6 °F - 66.2 °F 83% 29.93 in 5.0 mi Calm Calm - 0.12 in Rain Rain
6:55 PM 71.6 °F - 66.2 °F 83% 29.92 in 7.0 mi Calm Calm - 0.19 in Rain Rain
7:15 PM 71.6 °F - 66.2 °F 83% 29.94 in 10.0 mi Calm Calm - 0.01 in Rain Light Rain
7:35 PM 71.6 °F - 66.2 °F 83% 29.93 in 10.0 mi Calm Calm - 0.01 in   Mostly Cloudy
7:56 PM 71.6 °F - 66.2 °F 83% 29.94 in 10.0 mi Calm Calm - N/A   Overcast
8:16 PM 71.6 °F - 66.2 °F 83% 29.94 in 7.0 mi Calm Calm - N/A Rain Rain
8:36 PM 73.4 °F - 66.2 °F 78% 29.94 in 7.0 mi Calm Calm - N/A Rain Rain
8:56 PM 71.6 °F - 66.2 °F 83% 29.94 in 7.0 mi Calm Calm - N/A   Drizzle
9:16 PM 69.8 °F - 64.4 °F 83% 29.96 in 10.0 mi North 11.5 mph 19.6 mph N/A   Overcast
9:36 PM 66.2 °F - 62.6 °F 88% 29.97 in 10.0 mi North 12.7 mph 18.4 mph N/A   Overcast
9:56 PM 66.2 °F - 60.8 °F 83% 29.98 in 10.0 mi North 10.4 mph 17.3 mph N/A   Overcast
10:16 PM 66.2 °F - 59.0 °F 78% 29.99 in 10.0 mi North 8.1 mph - N/A   Overcast
10:36 PM 66.2 °F - 59.0 °F 78% 30.00 in 10.0 mi North 6.9 mph - N/A   Overcast
10:56 PM 68.0 °F - 59.0 °F 73% 30.01 in 10.0 mi North 6.9 mph - N/A   Overcast
11:16 PM 68.0 °F - 57.2 °F 68% 30.01 in 10.0 mi North 8.1 mph - N/A   Overcast
11:36 PM 68.0 °F - 55.4 °F 64% 30.02 in 10.0 mi North 6.9 mph - N/A   Overcast
11:56 PM 68.0 °F - 55.4 °F 64% 30.02 in 10.0 mi North 8.1 mph - N/A   Overcast